When you browse on this site, cookies collect data to enhance your experience and personalize the content and advertising you see.
Visit our Privacy Policy to learn more. By continuing to use the site, you agree to this use of cookies and data.
  • In Switzerland
  • List of Countries
  • For 7 days
  • Water Temperature
  • Satellite Maps
  • Weather Map
  • Weather Widgets
  • user-avatar
    Login

    Hourly Weather Korçe

    Today, 17 June, Monday

    Time Temperature Precipitation Wind Pressure Humidity
    00:00 +15°C° 0 mm 0 mps 665 mmHg 82%
    01:00 +16°C° 0 mm 1 mps 665 mmHg 81%
    02:00 +16°C° 0.1 mm 1 mps 665 mmHg 81%
    03:00 +15°C° 0.1 mm 1 mps 665 mmHg 81%
    04:00 +15°C° 0.1 mm 1 mps 665 mmHg 81%
    05:00 +18°C° 0 mm 1 mps 665 mmHg 76%
    06:00 +20°C° 0 mm 1 mps 666 mmHg 71%
    07:00 +22°C° 0 mm 1 mps 667 mmHg 64%
    08:00 +24°C° 0.3 mm 1 mps 667 mmHg 59%
    09:00 +25°C° 0.3 mm 1 mps 668 mmHg 53%
    10:00 +26°C° 0.3 mm 1 mps 668 mmHg 48%
    11:00 +24°C° 1.5 mm 1 mps 667 mmHg 57%
    12:00 +23°C° 1.5 mm 2 mps 667 mmHg 66%
    13:00 +20°C° 1.5 mm 2 mps 667 mmHg 75%
    14:00 +19°C° 2.2 mm 2 mps 666 mmHg 78%
    15:00 +18°C° 2.2 mm 2 mps 666 mmHg 81%
    16:00 +17°C° 2.2 mm 2 mps 666 mmHg 84%
    17:00 +17°C° 0 mm 2 mps 666 mmHg 84%
    18:00 +16°C° 0 mm 1 mps 666 mmHg 84%
    19:00 +16°C° 0 mm 1 mps 666 mmHg 84%
    20:00 +16°C° 0 mm 1 mps 666 mmHg 83%
    21:00 +15°C° 0 mm 1 mps 666 mmHg 81%
    22:00 +15°C° 0 mm 1 mps 666 mmHg 79%
    23:00 +14°C° 0 mm 1 mps 666 mmHg 78%

    Tomorrow, 18 June, Tuesday

    Time Temperature Precipitation Wind Pressure Humidity
    00:00 +14°C° 0 mm 1 mps 666 mmHg 77%
    01:00 +14°C° 0 mm 1 mps 666 mmHg 77%
    02:00 +14°C° 0 mm 1 mps 666 mmHg 76%
    03:00 +14°C° 0 mm 1 mps 666 mmHg 76%
    04:00 +14°C° 0 mm 1 mps 666 mmHg 76%
    05:00 +16°C° 0 mm 1 mps 666 mmHg 72%
    06:00 +18°C° 0 mm 1 mps 667 mmHg 68%
    07:00 +20°C° 0 mm 1 mps 668 mmHg 64%
    08:00 +22°C° 0 mm 1 mps 668 mmHg 59%
    09:00 +24°C° 0 mm 1 mps 668 mmHg 54%
    10:00 +23°C° 0 mm 0 mps 669 mmHg 49%
    11:00 +26°C° 0.3 mm 1 mps 669 mmHg 49%
    12:00 +26°C° 0.3 mm 1 mps 669 mmHg 48%
    13:00 +26°C° 0.3 mm 2 mps 668 mmHg 48%
    14:00 +25°C° 1.3 mm 2 mps 668 mmHg 56%
    15:00 +23°C° 1.3 mm 2 mps 667 mmHg 65%
    16:00 +21°C° 1.3 mm 2 mps 667 mmHg 74%
    17:00 +20°C° 1.1 mm 2 mps 666 mmHg 78%
    18:00 +19°C° 1.1 mm 1 mps 666 mmHg 82%
    19:00 +18°C° 1.1 mm 1 mps 666 mmHg 87%
    20:00 +16°C° 0.2 mm 1 mps 666 mmHg 86%
    21:00 +16°C° 0.2 mm 1 mps 666 mmHg 86%
    22:00 +15°C° 0.2 mm 1 mps 666 mmHg 86%
    23:00 +15°C° 0 mm 1 mps 666 mmHg 85%

    Day after tomorrow, 19 June, Wednesday

    Time Temperature Precipitation Wind Pressure Humidity
    00:00 +15°C° 0 mm 1 mps 666 mmHg 85%
    01:00 +13°C° 0 mm 0 mps 666 mmHg 84%
    02:00 +13°C° 0 mm 0 mps 665 mmHg 83%
    03:00 +14°C° 0 mm 1 mps 665 mmHg 83%
    04:00 +14°C° 0 mm 1 mps 665 mmHg 82%
    05:00 +16°C° 0 mm 1 mps 665 mmHg 78%
    06:00 +19°C° 0 mm 1 mps 666 mmHg 74%
    07:00 +20°C° 0 mm 1 mps 667 mmHg 70%
    08:00 +22°C° 0.4 mm 1 mps 667 mmHg 66%
    09:00 +23°C° 0.4 mm 1 mps 667 mmHg 62%
    10:00 +24°C° 0.4 mm 1 mps 668 mmHg 58%
    11:00 +24°C° 1 mm 2 mps 668 mmHg 58%
    12:00 +24°C° 1 mm 2 mps 667 mmHg 58%
    13:00 +25°C° 1 mm 3 mps 667 mmHg 58%
    14:00 +24°C° 1.2 mm 3 mps 667 mmHg 62%
    15:00 +22°C° 1.2 mm 3 mps 666 mmHg 66%
    16:00 +22°C° 1.2 mm 3 mps 666 mmHg 70%
    17:00 +20°C° 0.4 mm 2 mps 666 mmHg 75%
    18:00 +19°C° 0.4 mm 2 mps 665 mmHg 79%
    19:00 +18°C° 0.4 mm 1 mps 665 mmHg 84%
    20:00 +18°C° 0 mm 1 mps 665 mmHg 85%
    21:00 +16°C° 0 mm 1 mps 665 mmHg 86%
    22:00 +15°C° 0 mm 1 mps 665 mmHg 87%
    23:00 +15°C° 0 mm 1 mps 665 mmHg 86%

    20 June, Thursday

    Time Temperature Precipitation Wind Pressure Humidity
    00:00 +14°C° 0 mm 1 mps 665 mmHg 84%
    01:00 +14°C° 0 mm 1 mps 664 mmHg 83%
    02:00 +13°C° 0 mm 1 mps 664 mmHg 82%
    03:00 +13°C° 0 mm 1 mps 664 mmHg 82%
    04:00 +13°C° 0 mm 1 mps 664 mmHg 81%
    05:00 +15°C° 0 mm 1 mps 665 mmHg 76%
    06:00 +18°C° 0 mm 1 mps 665 mmHg 71%
    07:00 +20°C° 0 mm 1 mps 666 mmHg 66%
    08:00 +21°C° 0 mm 1 mps 666 mmHg 61%
    09:00 +22°C° 0 mm 1 mps 667 mmHg 56%
    10:00 +24°C° 0 mm 2 mps 667 mmHg 52%
    11:00 +24°C° 0 mm 2 mps 667 mmHg 52%
    12:00 +25°C° 0 mm 3 mps 667 mmHg 53%
    13:00 +25°C° 0 mm 3 mps 667 mmHg 53%
    14:00 +25°C° 0.2 mm 3 mps 667 mmHg 56%
    15:00 +24°C° 0.2 mm 3 mps 666 mmHg 60%
    16:00 +24°C° 0.2 mm 3 mps 666 mmHg 63%
    17:00 +21°C° 0.2 mm 2 mps 666 mmHg 70%
    18:00 +19°C° 0.2 mm 2 mps 666 mmHg 77%
    19:00 +18°C° 0.2 mm 1 mps 665 mmHg 84%
    20:00 +18°C° 0 mm 1 mps 665 mmHg 85%
    21:00 +16°C° 0 mm 1 mps 665 mmHg 87%
    22:00 +14°C° 0 mm 0 mps 665 mmHg 89%
    23:00 +14°C° 0 mm 0 mps 665 mmHg 87%

    21 June, Friday

    Time Temperature Precipitation Wind Pressure Humidity
    00:00 +14°C° 0 mm 0 mps 665 mmHg 85%
    01:00 +14°C° 0 mm 0 mps 665 mmHg 83%
    02:00 +14°C° 0 mm 0 mps 665 mmHg 83%
    03:00 +15°C° 0 mm 1 mps 665 mmHg 83%
    04:00 +14°C° 0 mm 1 mps 665 mmHg 84%
    05:00 +16°C° 0 mm 1 mps 666 mmHg 79%
    06:00 +19°C° 0 mm 1 mps 667 mmHg 74%
    07:00 +21°C° 0 mm 1 mps 667 mmHg 69%
    08:00 +22°C° 0 mm 1 mps 668 mmHg 64%
    09:00 +24°C° 0 mm 1 mps 668 mmHg 59%
    10:00 +25°C° 0 mm 1 mps 668 mmHg 54%
    11:00 +25°C° 0.4 mm 2 mps 668 mmHg 54%
    12:00 +26°C° 0.4 mm 2 mps 668 mmHg 54%
    13:00 +26°C° 0.4 mm 2 mps 668 mmHg 55%
    14:00 +25°C° 0.8 mm 2 mps 668 mmHg 58%
    15:00 +25°C° 0.8 mm 2 mps 667 mmHg 61%
    16:00 +24°C° 0.8 mm 2 mps 667 mmHg 63%
    17:00 +23°C° 0.5 mm 2 mps 667 mmHg 70%
    18:00 +20°C° 0.5 mm 2 mps 667 mmHg 77%
    19:00 +20°C° 0.5 mm 1 mps 666 mmHg 83%
    20:00 +19°C° 0 mm 1 mps 667 mmHg 84%
    21:00 +18°C° 0 mm 1 mps 667 mmHg 84%
    22:00 +18°C° 0 mm 1 mps 667 mmHg 85%
    23:00 +16°C° 0 mm 1 mps 667 mmHg 84%

    22 June, Saturday

    Time Temperature Precipitation Wind Pressure Humidity
    00:00 +16°C° 0 mm 1 mps 667 mmHg 84%
    01:00 +16°C° 0 mm 1 mps 666 mmHg 84%
    02:00 +16°C° 0 mm 1 mps 666 mmHg 83%
    03:00 +16°C° 0 mm 1 mps 666 mmHg 82%
    04:00 +15°C° 0 mm 1 mps 666 mmHg 82%
    05:00 +18°C° 0 mm 1 mps 667 mmHg 76%
    06:00 +20°C° 0 mm 1 mps 668 mmHg 71%
    07:00 +20°C° 0 mm 0 mps 668 mmHg 65%
    08:00 +24°C° 0 mm 1 mps 669 mmHg 60%
    09:00 +25°C° 0 mm 1 mps 669 mmHg 54%
    10:00 +27°C° 0 mm 1 mps 670 mmHg 49%
    11:00 +27°C° 0 mm 2 mps 670 mmHg 48%
    12:00 +28°C° 0 mm 2 mps 670 mmHg 47%
    13:00 +28°C° 0 mm 2 mps 670 mmHg 46%
    14:00 +28°C° 0 mm 2 mps 670 mmHg 47%
    15:00 +28°C° 0 mm 2 mps 669 mmHg 49%
    16:00 +27°C° 0 mm 2 mps 669 mmHg 50%
    17:00 +25°C° 0 mm 2 mps 669 mmHg 55%
    18:00 +24°C° 0 mm 1 mps 668 mmHg 60%
    19:00 +22°C° 0 mm 1 mps 668 mmHg 66%
    20:00 +21°C° 0 mm 1 mps 668 mmHg 67%
    21:00 +18°C° 0 mm 0 mps 668 mmHg 69%
    22:00 +17°C° 0 mm 0 mps 668 mmHg 70%
    23:00 +19°C° 0 mm 1 mps 668 mmHg 71%
    Show more